User: anonymous   Login
Location: Ida Center
(41.8662°N, 83.5713°W)
Time: 11:52:58
(UTC+00:00)
Language:

Cosmos 1697 Rocket - Orbit

View from above orbital plane
View from above orbital plane
View from above satellite
View from above satellite

Ground track
Ground track

The orbit data is extracted from the following two-line orbital elements,

1 16182U 85097B   20028.76614441  .00000112  00000-0  80632-4 0  9999
2 16182  71.0015 157.5119 0005693  46.4706  55.5063 14.16248326771515
Epoch (UTC): 28 January 2020 18:23:14
Eccentricity: 0.0005693
inclination: 71.0015°
perigee height: 834 km
apogee height: 842 km
right ascension of ascending node: 157.5119°
argument of perigee: 46.4706°
revolutions per day: 14.16248326
mean anomaly at epoch: 55.5063°
orbit number at epoch: 77151

The dashed part of the orbit path shows where the satellite is in the earth's shadow,  

DLR